W4SNA-3 Weather Reports


Display with metric or nautical units.
time (UTC)temp
F
wind
direction
speed
MPH
gust
MPH
rain 1hr
in
rain 24hr
in
rain mn
in
humidity
%
barometer
mb
20260504070334 45 0 0.0 3.0 0.00 0.00 0.00 61 1014.6
20260504060219 47 208 1.0 4.0 0.00 0.00 0.00 53 1014.8
20260504050741 46 282 1.0 4.0 0.00 0.00 0.00 56 1014.1
20260504050219 46 314 2.0 4.0 0.00 0.00 0.00 56 1014.1
20260504045719 46 3 1.0 4.0 0.00 0.00 0.00 57 1014.1
20260504045219 47 322 2.0 4.0 0.00 0.00 0.00 55 1014.1
20260504044740 47 318 1.0 4.0 0.00 0.00 0.00 55 1014.1
20260504044222 47 316 1.0 6.0 0.00 0.00 0.00 54 1014.1
20260504043719 47 304 2.0 6.0 0.00 0.00 0.00 55 1014.1
20260504043227 47 255 2.0 4.0 0.00 0.00 0.00 54 1014.2
20260504042719 47 318 1.0 4.0 0.00 0.00 0.00 54 1014.2
20260504042219 48 316 1.0 4.0 0.00 0.00 0.00 54 1014.3
20260504041719 47 359 1.0 4.0 0.00 0.00 0.00 50 1014.1
20260504041219 47 0 0.0 4.0 0.00 0.00 0.00 52 1014.2
20260504040719 47 0 0.0 3.0 0.00 0.00 0.00 52 1014.2
20260504040219 47 0 0.0 5.0 0.00 0.00 0.00 50 1014.3
20260504035740 47 0 0.0 5.0 0.00 0.00 0.00 50 1014.4
20260504035236 47 0 0.0 4.0 0.00 0.00 0.00 48 1014.4
20260504034719 47 0 0.0 3.0 0.00 0.00 0.00 49 1014.5
20260504034219 47 0 0.0 3.0 0.00 0.00 0.00 50 1014.6
20260504033731 47 0 0.0 3.0 0.00 0.00 0.00 47 1014.6
20260504033219 47 0 0.0 3.0 0.00 0.00 0.00 47 1014.4
20260504032719 47 0 0.0 3.0 0.00 0.00 0.00 46 1014.4
20260504031945 47 0 0.0 5.0 0.00 0.00 0.00 47 1014.3
20260504031445 48 110 1.0 5.0 0.00 0.00 0.00 48 1014.3
20260504030958 48 0 0.0 3.0 0.00 0.00 0.00 46 1014.2
20260504030444 47 0 0.0 4.0 0.00 0.00 0.00 47 1014.4
20260504025945 47 123 1.0 4.0 0.00 0.00 0.00 47 1014.3
20260504025445 46 0 0.0 3.0 0.00 0.00 0.00 48 1014.3
20260504024959 46 0 0.0 2.0 0.00 0.00 0.00 49 1014.3
20260504024444 46 0 0.0 2.0 0.00 0.00 0.00 49 1014.4
20260504023624 45 0 0.0 3.0 0.00 0.00 0.00 50 1014.5
20260504023124 45 0 0.0 2.0 0.00 0.00 0.00 52 1014.5
20260504022624 46 0 0.0 2.0 0.00 0.00 0.00 52 1014.5
20260504022124 46 0 0.0 2.0 0.00 0.00 0.00 49 1014.6
20260504021624 46 0 0.0 2.0 0.00 0.00 0.00 48 1014.3
20260504021124 45 0 0.0 2.0 0.00 0.00 0.00 49 1014.2
20260504020624 45 0 0.0 2.0 0.00 0.00 0.00 50 1014.3
20260504020138 46 0 0.0 2.0 0.00 0.00 0.00 51 1014.3
20260504015624 46 0 0.0 2.0 0.00 0.00 0.00 53 1014.2
20260504014711 46 252 1.0 3.0 0.00 0.00 0.00 52 1014.3
20260504014213 46 252 1.0 3.0 0.00 0.00 0.00 51 1013.9
20260504013711 46 252 1.0 3.0 0.00 0.00 0.00 51 1013.8
20260504013211 46 252 1.0 2.0 0.00 0.00 0.00 51 1013.8
20260504012727 46 0 0.0 3.0 0.00 0.00 0.00 50 1013.8
20260504012211 47 251 1.0 3.0 0.00 0.00 0.00 51 1013.7
20260504011711 47 251 1.0 3.0 0.00 0.00 0.00 49 1013.7
20260504011211 47 251 1.0 3.0 0.00 0.00 0.00 49 1013.7
20260504010739 47 251 1.0 3.0 0.00 0.00 0.00 48 1013.6
20260504010211 47 251 1.0 3.0 0.00 0.00 0.00 49 1013.5
20260504005739 48 251 1.0 3.0 0.00 0.00 0.00 48 1013.5
20260504005238 48 251 1.0 3.0 0.00 0.00 0.00 48 1013.5
20260504004730 48 251 1.0 3.0 0.00 0.00 0.00 48 1013.4
20260504004211 48 251 1.0 3.0 0.00 0.00 0.00 46 1013.4
20260504003753 49 251 1.0 3.0 0.00 0.00 0.00 46 1013.5
20260504003211 49 0 0.0 3.0 0.00 0.00 0.00 46 1013.5
20260504002712 49 251 1.0 3.0 0.00 0.00 0.00 46 1013.4
20260504001813 50 251 1.0 3.0 0.00 0.00 0.00 45 1013.5
20260504001314 50 251 1.0 3.0 0.00 0.00 0.00 44 1013.5
20260504000813 51 242 1.0 3.0 0.00 0.00 0.00 44 1013.5
20260504000323 51 233 1.0 3.0 0.00 0.00 0.00 44 1013.5
20260503235814 51 201 1.0 3.0 0.00 0.00 0.00 44 1013.6
20260503235313 52 0 0.0 3.0 0.00 0.00 0.00 45 1013.6
20260503234813 52 0 0.0 3.0 0.00 0.00 0.00 43 1013.6
20260503234313 53 0 0.0 2.0 0.00 0.00 0.00 42 1013.5
20260503233813 53 0 0.0 3.0 0.00 0.00 0.00 40 1013.5
20260503233313 53 0 0.0 3.0 0.00 0.00 0.00 40 1013.3
20260503232813 53 0 0.0 1.0 0.00 0.00 0.00 37 1013.2
20260503231947 54 0 0.0 2.0 0.00 0.00 0.00 35 1013.2
20260503231444 54 0 0.0 3.0 0.00 0.00 0.00 36 1013.2
20260503230946 54 0 0.0 3.0 0.00 0.00 0.00 38 1013.2
20260503230447 54 0 0.0 3.0 0.00 0.00 0.00 37 1013.2
20260503225944 54 0 0.0 3.0 0.00 0.00 0.00 37 1013.2
20260503225444 55 0 0.0 3.0 0.00 0.00 0.00 36 1013.2
20260503224945 55 0 0.0 3.0 0.00 0.00 0.00 35 1013.2
20260503224445 55 343 1.0 4.0 0.00 0.00 0.00 35 1013.2
20260503223945 55 338 1.0 4.0 0.00 0.00 0.00 37 1013.3
20260503223445 55 0 0.0 3.0 0.00 0.00 0.00 35 1013.3
20260503222945 55 0 0.0 3.0 0.00 0.00 0.00 36 1013.3
20260503222445 55 0 0.0 3.0 0.00 0.00 0.00 34 1013.4
20260503221946 56 0 0.0 3.0 0.00 0.00 0.00 34 1013.3
20260503221444 56 0 0.0 3.0 0.00 0.00 0.00 34 1013.4
20260503220946 56 18 1.0 3.0 0.00 0.00 0.00 34 1013.4
20260503220445 56 0 0.0 3.0 0.00 0.00 0.00 33 1013.4
20260503220011 56 0 0.0 3.0 0.00 0.00 0.00 34 1013.4
20260503215445 56 0 0.0 3.0 0.00 0.00 0.00 34 1013.4
20260503214944 56 0 0.0 2.0 0.00 0.00 0.00 34 1013.5
20260503214445 57 0 0.0 4.0 0.00 0.00 0.00 35 1013.6
20260503213947 57 19 1.0 4.0 0.00 0.00 0.00 31 1013.6
20260503213445 57 0 0.0 2.0 0.00 0.00 0.00 34 1013.7
20260503212948 57 0 0.0 4.0 0.00 0.00 0.00 31 1013.7
20260503212444 58 0 0.0 6.0 0.00 0.00 0.00 33 1013.7
20260503211944 58 0 0.0 6.0 0.00 0.00 0.00 34 1013.7
20260503211444 58 0 0.0 3.0 0.00 0.00 0.00 35 1013.7
20260503210945 59 0 0.0 3.0 0.00 0.00 0.00 33 1013.8
20260503210446 59 0 0.0 3.0 0.00 0.00 0.00 31 1013.8
20260503205944 59 0 0.0 3.0 0.00 0.00 0.00 30 1013.9
20260503205445 60 0 0.0 7.0 0.00 0.00 0.00 30 1013.9
20260503205011 60 325 1.0 7.0 0.00 0.00 0.00 29 1013.8
20260503204444 60 300 1.0 5.0 0.00 0.00 0.00 30 1014.0
20260503203904 60 36 1.0 4.0 0.00 0.00 0.00 29 1014.0
20260503203404 60 249 1.0 5.0 0.00 0.00 0.00 29 1014.1
20260503202904 60 0 0.0 5.0 0.00 0.00 0.00 30 1014.1
20260503202404 60 13 1.0 4.0 0.00 0.00 0.00 32 1014.0
20260503201705 60 0 0.0 4.0 0.00 0.00 0.00 31 1014.2
20260503201205 60 0 0.0 4.0 0.00 0.00 0.00 31 1014.2
20260503200705 61 0 0.0 4.0 0.00 0.00 0.00 30 1014.4
20260503195845 60 335 1.0 6.0 0.00 0.00 0.00 31 1014.4
20260503195417 60 0 0.0 5.0 0.00 0.00 0.00 29 1014.5
20260503194841 60 346 1.0 7.0 0.00 0.00 0.00 29 1014.5
20260503194341 59 65 2.0 7.0 0.00 0.00 0.00 29 1014.6
20260503193400 60 105 1.0 4.0 0.00 0.00 0.00 30 1014.6
20260503192900 60 0 0.0 4.0 0.00 0.00 0.00 33 1014.6
20260503192400 60 0 0.0 5.0 0.00 0.00 0.00 34 1014.8
20260503191900 60 0 0.0 5.0 0.00 0.00 0.00 30 1014.8
20260503191331 60 0 0.0 6.0 0.00 0.00 0.00 33 1015.0
20260503190830 60 10 1.0 6.0 0.00 0.00 0.00 28 1015.0
20260503190330 60 353 1.0 5.0 0.00 0.00 0.00 30 1015.1
20260503185830 60 294 1.0 5.0 0.00 0.00 0.00 29 1015.0
20260503185330 59 270 2.0 5.0 0.00 0.00 0.00 34 1014.9
20260503184530 60 58 1.0 4.0 0.00 0.00 0.00 29 1015.1
20260503184030 60 357 1.0 6.0 0.00 0.00 0.00 30 1015.4
20260503183530 59 338 2.0 6.0 0.00 0.00 0.00 26 1015.4
20260503183030 59 28 1.0 8.0 0.00 0.00 0.00 27 1015.4
20260503182530 59 353 2.0 8.0 0.00 0.00 0.00 29 1015.5
20260503182030 59 265 1.0 5.0 0.00 0.00 0.00 32 1015.4
20260503181531 58 352 1.0 6.0 0.00 0.00 0.00 31 1015.4
20260503181031 58 222 2.0 6.0 0.00 0.00 0.00 34 1015.5
20260503180530 58 53 2.0 5.0 0.00 0.00 0.00 28 1015.6
20260503180030 58 71 1.0 3.0 0.00 0.00 0.00 35 1015.6
20260503175530 58 55 1.0 4.0 0.00 0.00 0.00 35 1015.4
20260503175030 58 315 1.0 6.0 0.00 0.00 0.00 35 1015.6
20260503174531 59 46 1.0 6.0 0.00 0.00 0.00 30 1015.6
20260503174031 58 340 1.0 4.0 0.00 0.00 0.00 35 1015.5
20260503173530 58 315 1.0 8.0 0.00 0.00 0.00 33 1015.5
20260503173029 57 315 1.0 8.0 0.00 0.00 0.00 35 1015.8
20260503172029 57 353 1.0 7.0 0.00 0.00 0.00 32 1015.9
20260503171531 58 0 0.0 5.0 0.00 0.00 0.00 32 1015.9
20260503171029 58 316 3.0 5.0 0.00 0.00 0.00 30 1016.1
20260503170530 57 289 2.0 8.0 0.00 0.00 0.00 32 1016.1
20260503150532 52 0 0.0 7.0 0.00 0.00 0.00 41 1016.5
20260503130923 44 292 3.0 8.0 0.00 0.00 0.00 53 1015.3
20260503130423 43 320 4.0 8.0 0.00 0.00 0.00 55 1015.1
20260503110334 33 299 2.0 6.0 0.00 0.00 0.00 82 1014.2
20260503100222 34 309 3.0 6.0 0.00 0.00 0.00 80 1013.3
20260503090109 34 313 2.0 5.0 0.00 0.00 0.00 80 1013.1
20260503081318 34 344 1.0 2.0 0.00 0.00 0.00 80 1012.9
20260503080826 34 344 1.0 3.0 0.00 0.00 0.00 80 1012.7
20260503080318 34 344 1.0 5.0 0.00 0.00 0.00 80 1012.7
20260503072818 34 0 0.0 2.0 0.00 0.00 0.00 79 1012.6